Location: Lafig�re
(44.4503°N, 4.0357°E)
Time: 09:23:41
(UTC+00:00)

Tiros 1 despin weight - All Passes

Search period start: 24 January 2021 00:00
Search period end: 03 February 2021 00:00
Orbit: 594 x 641 km, 48.2° (Epoch: 24 January)

Date Brightness Start Highest point End Pass type
(mag) Time Alt. Az. Time Alt. Az. Time Alt. Az.
24 Jan - 13:33:47 10° SSW 13:37:59 37° SE 13:42:08 10° ENE daylight
24 Jan - 15:14:50 10° WSW 15:19:22 73° NNW 15:23:51 10° ENE daylight
24 Jan - 16:56:52 10° WNW 17:01:15 52° N 17:05:37 10° E daylight
24 Jan - 18:38:35 10° WNW 18:43:04 90° SW 18:47:30 10° ESE visible
24 Jan - 20:20:37 10° W 20:24:14 25° SW 20:27:49 10° SSE visible
25 Jan - 12:10:44 10° S 12:13:19 15° SE 12:15:53 10° E daylight
25 Jan - 13:49:43 10° SW 13:54:13 61° SSE 13:58:41 10° ENE daylight
25 Jan - 15:31:23 10° W 15:35:52 58° N 15:40:17 10° ENE daylight
25 Jan - 17:13:22 10° WNW 17:17:49 58° N 17:22:12 10° E visible
25 Jan - 18:55:02 10° WNW 18:59:25 58° SSW 19:03:45 10° SE visible
25 Jan - 20:38:06 10° WSW 20:40:15 13° SW 20:42:23 10° SSW visible
26 Jan - 12:25:31 10° SSW 12:29:22 27° SE 12:33:11 10° E daylight
26 Jan - 14:06:01 10° WSW 14:10:36 88° NNW 14:15:06 10° ENE daylight
26 Jan - 15:47:59 10° W 15:52:26 52° N 15:56:48 10° ENE daylight
26 Jan - 17:29:49 10° WNW 17:34:19 75° NNE 17:38:45 10° ESE visible
26 Jan - 19:11:37 10° WNW 19:15:39 34° SW 19:19:39 10° SSE visible
27 Jan - 12:41:10 10° SW 12:45:33 46° SSE 12:49:54 10° ENE daylight
27 Jan - 14:22:30 10° W 14:27:03 65° NNW 14:31:32 10° ENE daylight
27 Jan - 16:04:32 10° WNW 16:08:59 54° N 16:13:22 10° E daylight
27 Jan - 17:46:14 10° WNW 17:50:44 77° SSW 17:55:08 10° ESE visible
27 Jan - 19:28:33 10° W 19:31:45 19° SW 19:34:55 10° S visible
28 Jan - 11:17:31 10° S 11:20:48 19° SE 11:24:04 10° E daylight
28 Jan - 12:57:15 10° WSW 13:01:51 74° SSE 13:06:23 10° ENE daylight
28 Jan - 14:39:06 10° W 14:43:35 54° N 14:48:00 10° ENE daylight
28 Jan - 16:21:01 10° WNW 16:25:31 64° NNE 16:29:57 10° E daylight
28 Jan - 18:02:43 10° WNW 18:07:02 47° SSW 18:11:16 10° SE visible
29 Jan - 11:32:45 10° SSW 11:36:54 34° SE 11:41:02 10° E daylight
29 Jan - 13:13:39 10° WSW 13:18:15 77° NNW 13:22:47 10° ENE daylight
29 Jan - 14:55:41 10° WNW 15:00:09 52° N 15:04:32 10° ENE daylight
29 Jan - 16:37:27 10° WNW 16:41:59 85° NNE 16:46:27 10° ESE daylight
29 Jan - 18:19:24 10° W 18:23:12 27° SW 18:26:57 10° SSE visible
30 Jan - 10:10:01 10° SSE 10:12:16 14° SE 10:14:31 10° ESE daylight
30 Jan - 11:48:37 10° SW 11:53:08 57° SSE 11:57:36 10° ENE daylight
30 Jan - 13:30:12 10° W 13:34:45 60° NNW 13:39:14 10° ENE daylight
30 Jan - 15:12:12 10° WNW 15:16:42 57° N 15:21:07 10° E daylight
30 Jan - 16:53:53 10° WNW 16:58:21 64° SSW 17:02:45 10° SE daylight
30 Jan - 18:36:40 10° W 18:39:15 15° SW 18:41:48 10° S visible
31 Jan - 10:24:33 10° SSW 10:28:18 25° SE 10:32:01 10° E daylight
31 Jan - 12:04:51 10° WSW 12:09:28 87° SSE 12:14:03 10° ENE daylight
31 Jan - 13:46:48 10° W 13:51:17 53° N 13:55:43 10° ENE daylight
31 Jan - 15:28:40 10° WNW 15:33:13 71° NNE 15:37:40 10° ESE daylight
31 Jan - 17:10:26 10° WNW 17:14:37 38° SW 17:18:43 10° SSE daylight
01 Feb - 10:40:05 10° SW 10:44:27 42° SE 10:48:48 10° ENE daylight
01 Feb - 12:21:19 10° W 12:25:55 69° NNW 12:30:28 10° ENE daylight
01 Feb - 14:03:21 10° WNW 14:07:51 53° N 14:12:17 10° E daylight
01 Feb - 15:45:05 10° WNW 15:49:39 83° SSW 15:54:06 10° ESE daylight
01 Feb - 17:27:16 10° W 17:30:44 22° SW 17:34:08 10° S visible
02 Feb - 09:16:39 10° S 09:19:44 18° SE 09:22:48 10° E daylight
02 Feb - 10:56:07 10° SW 11:00:44 69° SSE 11:05:17 10° ENE daylight
02 Feb - 12:37:53 10° W 12:42:26 56° N 12:46:55 10° ENE daylight
02 Feb - 14:19:51 10° WNW 14:24:24 61° NNE 14:28:52 10° E daylight
02 Feb - 16:01:34 10° WNW 16:05:57 52° SSW 16:10:17 10° SE daylight
02 Feb - 17:45:12 10° WSW 17:46:43 12° SW 17:48:14 10° SSW visible
